Home   Weather   Montgomery   Past weeks

Flag for USA Past Weather in Montgomery, Alabama, USA — Yesterday and Last 2 Weeks

Now
80 °F

Sunny.


Feels Like: 85 °F
Forecast: 74 / 94 °F
Wind: 2 mph from Northwest

Location: Maxwell Air Force Base / Montgomery

Current Time: Aug 30, 2016 at 7:30:52 PM

Latest Report: Aug 30, 2016 at 6:58 PM


Visibility: 10 mi

Pressure: 29.92 "Hg

Humidity: 92%

Dew Point: 77 °F

Location of MontgomeryLocation

Past Weather in Montgomery — Graph

°F

Montgomery Temperature Yesterday

Maximum temperature yesterday: 95 °F (at 2:58 PM)
Minimum temperature yesterday: 76 °F (at 4:58 AM)
Average temperature yesterday: 84 °F

High & Low Weather Summary for the Past Weeks

 TemperatureHumidityPressure
High97 °F (Aug 16, 2:58 PM)100% (Aug 21, 3:58 AM)30.23 "Hg (Aug 21, 3:58 AM)
Low73 °F (Aug 17, 3:58 AM)36% (Aug 27, 5:58 PM)29.89 "Hg (Aug 20, 3:58 PM)
Average82 °F75%30.07 "Hg
* Reported Aug 15 5:58 PM — Aug 30 5:58 PM, Montgomery, Weather by CustomWeather, © 2016

Note: Actual official high and low records may vary slightly from our data, if they occured in-between our weather recording intervals... More about our weather records

Advertising

Montgomery Weather History for the Previous 24 Hours

Scroll right to see more
 ConditionsComfort  
Time TempWeatherWind HumidityBarometerVisibility
5:58 PM
Tue, Aug 30
81 °FSunny.2 mph82%29.93 "Hg10 mi
4:58 PM79 °FScattered clouds.5 mph89%29.94 "Hg10 mi
3:58 PM93 °FPartly sunny.8 mph50%29.94 "Hg10 mi
2:58 PM92 °FScattered clouds.7 mph50%29.96 "Hg10 mi
1:58 PM92 °FBroken clouds.12 mph50%29.99 "Hg10 mi
12:58 PM91 °FSunny.8 mph52%30.01 "Hg10 mi
11:58 AM90 °FPassing clouds.10 mph53%30.03 "Hg7 mi
10:58 AM88 °FScattered clouds.10 mph59%30.04 "Hg10 mi
9:58 AM85 °FSunny.6 mph66%30.05 "Hg10 mi
8:58 AM81 °FSunny.6 mph76%30.04 "Hg10 mi
7:58 AM78 °FSunny.6 mph82%30.04 "Hg10 mi
6:58 AM74 °FClear.3 mph90%30.03 "Hg10 mi
5:58 AM75 °FClear.3 mph89%30.01 "Hg10 mi
4:58 AM75 °FClear.7 mph87%30.00 "Hg10 mi
3:58 AM76 °FClear.6 mph83%29.99 "Hg10 mi
2:58 AM77 °FClear.6 mph82%30.00 "Hg10 mi
1:58 AM77 °FClear.3 mph85%30.01 "Hg10 mi
12:58 AM77 °FClear.3 mph87%30.01 "Hg10 mi
11:58 PM
Mon, Aug 29
77 °FClear.2 mph88%30.01 "Hg10 mi
10:58 PM77 °FClear.3 mph87%30.02 "Hg10 mi
9:58 PM78 °FPassing clouds.6 mph88%30.02 "Hg10 mi
8:58 PM78 °FPassing clouds.5 mph90%30.02 "Hg10 mi
7:58 PM79 °FSunny.5 mph83%30.00 "Hg10 mi
Weather by CustomWeather, © 2016

See weather overviewHow to use our weather pages